Retour au catalogue

JO-97

JY1SAT

ActifRadio amateurSSO
NORAD 43803·PAYLOAD·🇯🇴 Jordan

Lancé Dec 3, 2018 depuis Vandenberg Space Force Base

Loading…

Prochains Passages (prochaines 24 heures)

TLE

FraisSource: AMSAT

Époque: Sep 14, 2026, 09:42 UTC

1 43803U 18099AX  26257.40456493  .00013172  00000-0  37443-3 0  9990
2 43803  97.4033 320.6747 0004078 322.4190  37.6768 15.36281570427317

Suivez JO-97 en temps réel avec AllMySat

Download on the App Store